Regional Weather Roundup
Issued by NWS

Home | Current Version | Previous Version | Graphics & Text | Print | Product List | Glossary On
Versions: 1 2 3 4 5 6 7 8 9 10 11 12 13 14 15 16 17 18 19 20 21 22 23 24 25 26 27 28 29 30 31 32 33 34 35 36 37 38 39 40 41 42 43 44 45 46 47 48 49 50
000
ASUS45 KSLC 190610
RWRUT

UTAH REGIONAL WEATHER ROUNDUP
NATIONAL WEATHER SERVICE SALT LAKE CITY UT
1200 AM MDT FRI SEP 19 2014

UTZ001>011-023>025-190700-

NORTHERN UTAH

CITY           SKY/WX    TMP DP  RH WIND       PRES   REMARKS
HILL AFB       PTCLDY    69  51  51 NE16G30   29.92R
LOGAN          MOCLDY    61  58  90 NE6       29.96R
OGDEN          MOCLDY    72  48  42 NE13      29.89R
PROVO AIRPORT  MOCLDY    72  55  56 NW14      29.91R
SALT LAKE CITY PTCLDY    68  52  56 N8        29.90R HAZE
VERNAL         PTCLDY    62  45  53 CALM      29.95R
WENDOVER       MOCLDY    70  52  52 S5        29.92S
HEBER CITY     MOCLDY    63  48  59 N6        29.97R
WEST JORDAN    CLEAR     66  50  55 NW7       29.94R

$$

UTZ012>022-026-027-190700-

SOUTHERN UTAH

CITY           SKY/WX    TMP DP  RH WIND       PRES   REMARKS
BRYCE CANYON   CLEAR     48  44  86 W5        30.16R
CEDAR CITY     CLEAR     63  51  65 CALM      30.00R
MILFORD        CLEAR     72  51  47 S10       29.94R
MOAB/CYNLANDS  CLEAR     68  35  29 W5        29.89R
PRICE          CLEAR     64  39  39 NE7       30.00S
ST GEORGE      MOCLDY    79  52  38 CALM      29.83R

$$

REGIONAL REPORTS     COLORADO/ARIZONA

CITY           SKY/WX    TMP DP  RH WIND       PRES   REMARKS
CRAIG, CO      CLEAR     51  42  71 CALM      30.04R
GRAND JUNCTION CLEAR     65  44  46 SE5       29.93R
RIFLE          CLEAR     58  43  57 CALM      30.01R
MONTROSE       PTCLDY    62  43  49 SE8       30.04R
CORTEZ         CLEAR     53  44  71 E6        30.05R
PAGE, AZ       CLOUDY    81  51  35 SW9       29.89S
GRAND CANYON   PTCLDY    54  50  86 CALM      30.13R
KINGMAN        MOCLDY    77  56  48 S9        29.88R
FLAGSTAFF      CLEAR     57  55  93 SW3       30.17S

$$

REGIONAL REPORTS    NEVADA/IDAHO/WYOMING

CITY           SKY/WX    TMP DP  RH WIND       PRES   REMARKS
LAS VEGAS, NV  CLEAR     85  41  21 SW12      29.72R
ELY            CLEAR     59  33  37 VRB3      30.03R
ELKO           PTCLDY    60  52  74 CALM      29.99R
POCATELLO, ID  CLEAR     59  57  93 SW3       29.93R
BURLEY         CLEAR     60  46  59 SW6       29.90R HAZE
EVANSTON, WY   TSTM      54  48  80 N20       30.12R
ROCK SPRINGS   MOCLDY    61  44  53 N14G20    30.06R

$$



USA.gov is the U.S. government's official web portal to all federal, state and local government web resources and services.